#timestamp,LO_Frequency,Hit,StdDev 
1502517615.2,286046999.9,N,0.9
1502517635.1,286047000.7,N,0.9
1502517636.0,286047000.7,N,0.9
1502517655.8,286047000.3,N,0.9
1502517675.7,286047000.7,N,0.8
1502517695.5,286047002.6,Y,0.0
1502517715.3,286047001.9,P,0.6
1502517735.2,286047002.4,P,0.7
1502517755.0,286047001.0,N,0.7
1502517755.9,286047001.0,N,0.6
1502517775.8,286047000.3,N,0.7
1502517795.6,286047002.8,Y,0.0
1502517815.4,286047000.6,P,0.3
1502517835.3,286047000.0,N,0.5
1502517855.1,286047000.3,N,0.5
1502517875.9,286046999.8,N,0.5
1502517895.7,286047000.3,N,0.5
1502517915.5,286047001.8,Y,0.0
1502517935.4,286047000.0,P,0.2
1502517955.2,286046999.9,N,0.2
1502517975.1,286047000.5,N,0.2
1502517976.0,286047000.5,N,0.3
1502517995.8,286047000.6,N,0.3
1502518015.6,286047000.6,N,0.3
1502518035.5,286047000.1,N,0.3
1502518055.3,286047002.0,Y,0.0
1502518075.2,286047000.3,P,0.0
1502518095.9,286047000.3,P,0.0
1502518115.7,286047001.0,P,0.3
1502518135.6,286047000.5,N,0.3
1502518155.4,286047001.8,Y,0.0
1502518175.3,286047000.3,P,0.1
1502518195.1,286047002.2,P,0.9
1502518196.0,286047002.2,N,0.9
1502518215.8,286047000.1,N,0.9
1502518235.7,286047000.5,N,0.9
1502518255.5,286047000.9,N,0.8
1502518275.3,286046998.2,N,1.2
1502518295.2,286047001.2,N,1.1
1502518315.0,286046998.2,N,1.3
1502518315.9,286046998.2,N,1.4
1502518335.8,286047001.2,N,1.4
1502518355.6,286046998.6,N,1.4
1502518375.5,286047000.7,N,1.3
1502518395.3,286046999.8,N,1.3
1502518415.1,286047000.8,N,1.3
1502518435.9,286047000.3,N,1.2
1502518455.7,286047000.6,N,1.2
1502518475.6,286047000.7,N,1.2
1502518495.4,286047001.1,N,1.2
1502518515.2,286047000.9,N,1.1
1502518535.1,286046998.5,N,1.2
1502518536.0,286046998.5,N,1.2
1502518555.8,286047001.2,N,1.2
1502518575.6,286047000.5,N,1.2
1502518595.5,286047000.0,N,1.2
1502518615.3,286047001.2,N,1.1
1502518635.2,286047000.3,N,1.1
1502518655.9,286046999.7,N,1.1
1502518675.7,286047001.0,N,1.1
1502518695.6,286047000.6,N,1.1
1502518715.4,286047000.9,N,1.1
1502518735.3,286047000.4,N,1.1
1502518755.1,286047001.2,N,1.0
1502518756.0,286047001.2,N,1.0
1502518775.8,286047000.1,N,1.0
1502518795.7,286047000.4,N,1.0
1502518815.5,286047000.5,N,0.9
1502518835.4,286047000.3,N,0.9
1502518855.2,286047000.8,N,0.8
1502518875.0,286046998.1,N,0.9
1502518875.9,286046998.1,N,0.9
1502518895.8,286047001.0,N,0.9
1502518915.6,286047000.5,N,0.9
1502518935.5,286047000.7,N,0.9
1502518955.3,286047001.1,N,0.9
1502518975.1,286047000.5,N,0.9
1502518995.9,286047000.2,N,0.9
1502519015.7,286047002.5,N,1.0
1502519035.5,286047000.2,N,1.0
1502519055.4,286047002.4,N,1.0
1502519075.2,286047002.4,N,1.0
1502519095.1,286047002.3,N,1.0
1502519096.0,286047002.3,N,1.0
1502519115.8,286047002.7,N,1.1
1502519135.6,286047002.8,N,1.1
1502519155.5,286047002.2,N,1.2
1502519175.3,286047002.8,N,1.2
1502519195.2,286047000.3,N,1.2
1502519215.9,286047000.5,N,1.2
1502519235.7,286047000.3,N,1.2
1502519255.6,286046999.8,N,1.2
1502519275.4,286046999.8,N,1.2
1502519295.3,286047000.1,N,1.2
1502519315.1,286047000.0,N,1.2
1502519316.0,286047000.0,N,1.2
1502519335.8,286047000.0,N,1.3
1502519355.7,286047000.1,N,1.3
1502519375.5,286047000.2,N,1.3
1502519395.4,286047000.4,N,1.3
1502519415.2,286047001.2,N,1.2
1502519435.0,286046998.3,N,1.1
1502519435.9,286046998.3,N,1.2
1502519455.8,286046998.3,N,1.3
1502519475.6,286046999.0,N,1.4
1502519495.4,286046998.5,N,1.4
1502519515.3,286046999.3,N,1.4
1502519535.1,286046999.4,N,1.4
1502519555.9,286046998.8,N,1.4
1502519575.7,286046997.2,N,1.5
1502519595.5,286046996.8,N,1.6
1502519615.4,286046997.0,N,1.7
1502519635.2,286046997.1,N,1.7
1502519655.1,286047003.8,N,1.8
1502519656.0,286047003.8,N,1.8
1502519675.8,286047002.9,N,1.8
1502519695.6,286047004.2,N,2.0
1502519715.5,286047004.4,N,2.1
1502519735.3,286046999.7,N,2.1
1502519755.2,286047001.0,N,2.1
1502519775.0,286046996.5,N,2.1
1502519775.9,286046996.5,N,2.2
1502519795.8,286046999.6,N,2.2
1502519815.6,286046999.3,N,2.2
1502519835.4,286046999.5,N,2.2
1502519855.3,286046997.0,N,2.3
1502519875.1,286046997.1,N,2.3
1502519895.9,286046997.6,N,2.3
1502519915.7,286046997.9,N,2.4
1502519935.5,286046997.5,N,2.4
1502519955.4,286046996.8,N,2.4
1502519975.2,286046995.1,N,2.5
1502519995.1,286046995.2,N,2.6
1502519996.0,286046995.2,N,2.7
1502520015.8,286046995.0,N,2.7
1502520035.6,286046995.0,N,2.8
1502520055.5,286046997.0,N,2.8
1502520075.3,286046997.8,N,2.8
1502520095.2,286046998.0,N,2.8
1502520115.9,286046995.0,N,2.9
1502520135.7,286041465.9,Y,0.0
1502520155.6,286046996.6,P,0.9
1502520175.4,286046997.6,N,0.7
1502520195.3,286046998.0,N,0.6
1502520215.1,286046997.6,Y,0.0
1502520235.8,286046998.9,P,0.6
1502520255.7,286046999.0,N,0.6
1502520275.5,286046999.4,N,0.7
1502520295.4,286046999.1,N,0.6
1502520315.2,286046999.0,N,0.6
1502520335.0,286046999.0,N,0.5
1502520335.9,286046999.0,N,0.5
1502520355.8,286046998.7,N,0.5
1502520375.6,286046997.0,Y,0.0
1502520395.5,286047000.8,P,1.0
1502520415.3,286047000.4,N,0.8
1502520435.1,286047002.8,P,1.4
1502520455.9,286047000.8,N,1.3
1502520475.7,286046998.1,N,1.5
1502520495.6,286047001.1,N,1.4
1502520515.4,286046998.2,N,1.5
1502520535.2,286046998.6,N,1.5
1502520555.1,286046998.3,N,1.5
1502520556.0,286046998.3,N,1.5
1502520575.8,286047000.7,N,1.5
1502520595.7,286047001.0,N,1.5
1502520615.5,286047000.6,N,1.4
1502520635.3,286047000.6,N,1.4
1502520655.2,286682706.2,Y,0.0
1502520675.0,286046998.1,P,0.9
1502520675.9,286046998.1,N,0.9
1502520695.8,286046998.2,N,0.8
1502520715.6,286047000.4,N,1.0
1502520735.4,286047000.4,N,1.1
1502520755.3,286046999.7,N,1.0
1502520775.1,286046998.5,N,1.0
1502520795.9,286046998.3,N,1.0
1502520815.7,286047001.1,N,1.1
1502520835.5,286047000.1,N,1.1
1502520855.4,286047000.3,N,1.1
1502520875.2,286047000.0,N,1.0
1502520895.1,286047001.0,N,1.1
1502520896.0,286047001.0,N,1.1
1502520915.8,286047000.2,N,1.1
1502520935.6,286046999.9,N,1.0
1502520955.5,286047002.8,N,1.2
1502520975.3,286047000.4,N,1.2
1502520995.2,286047000.6,N,1.2
1502521015.9,286047000.6,N,1.2
1502521035.7,286047000.3,N,1.1
1502521055.6,286047002.6,N,1.2
1502521075.4,286047002.3,N,1.3
1502521095.2,286047000.1,N,1.3
1502521115.1,286047002.6,N,1.3
1502521116.0,286047002.6,N,1.4
1502521135.8,286047004.4,Y,0.0
1502521155.7,286047002.3,P,1.0
1502521175.5,286047002.8,N,1.0
1502521195.3,286047001.1,N,1.0
